Content
SEND FEEDBACK

Daily
Averages
Monthly
Summary
United States of America

EL PASO, TEXAS


Home > North America > United States > Texas
Elevation: 1194 meters     Latitude: 31 48N     Longitude: 106 24W

WEATHER
 
SELECT A DAY
Number of Records: 174,573;   Date Range: 1/1/95 - 10/20/14
 
SHARE

PRINT THIS DATA

[ ← Previous Day ]
WEATHER ALMANAC - 19 JUNE, 2013
[ Next Day → ]
[ °F ]   °C
Weather ElementAverageHighLow
Temperature32.8 °C39.4 °C (3:51 pm)25 °C (5:51 am)
Dewpoint7.8 °C15 °C (8:51 am)-0.6 °C (2:51 pm)
Humidity25.8 %50 % (5:51 am)8 % (2:51 pm)
Barometer1004.4 hPa1011.2 hPa (9:38 pm)1000.7 hPa (5:51 pm)
Wind Speed15.3 km/h35.2 km/h (9:51 pm)
Wind Gust46.3 km/h (9:51 pm)
Weather ElementAverage
Visibility15 km
Wind DirectionSSE (162.5 °)

Weather ElementTotal
Precipitation---
Cooling Degree Days13.9 (Base 18.3)
Growing Degree Days22.2 (Base 10)
Averaged from 24 records on 19 June, 2013
WEATHER CONDITIONS BREAKOUT
WIND DIRECTION BREAKOUT
WEATHER BY HOUR - 19 JUNE, 2013
[ °F ]   °C
Local TimeTemperatureDewpointHumidityBarometerVisibilityWind DirectionWind SpeedGust SpeedPrecipitationEventsConditions
1:51 AM27.8 °C14.4 °C44 %1004.7 hPa16.1 kmSSW (200°)5.6 km/hClear
2:51 AM27.8 °C13.9 °C42 %1004.4 hPa16.1 kmSSE (160°)11.1 km/hClear
3:51 AM26.7 °C13.9 °C45 %1004.4 hPa16.1 kmSouth (170°)7.4 km/hClear
4:51 AM26.7 °C13.9 °C45 %1004.4 hPa16.1 kmSSE (160°)16.7 km/hClear
5:51 AM25 °C13.9 °C50 %1005.1 hPa16.1 kmSSE (160°)5.6 km/hScattered Clouds
6:51 AM25.6 °C13.9 °C48 %1005.8 hPa16.1 kmCalmPartly Cloudy
7:51 AM27.8 °C14.4 °C44 %1006.1 hPa16.1 kmSSE (150°)9.3 km/hPartly Cloudy
8:51 AM29.4 °C15 °C41 %1006.4 hPa16.1 kmSSE (160°)16.7 km/hPartly Cloudy
9:51 AM30.6 °C13.9 °C36 %1006.4 hPa16.1 kmSSE (160°)14.8 km/hPartly Cloudy
10:51 AM32.8 °C12.8 °C29 %1006.4 hPa16.1 kmSouth (180°)18.5 km/hPartly Cloudy
11:51 AM35 °C7.2 °C18 %1005.8 hPa16.1 kmSSW (210°)18.5 km/hPartly Cloudy
12:51 PM36.7 °C1.7 °C11 %1005.1 hPa16.1 kmWest (260°)7.4 km/h27.8 km/hPartly Cloudy
1:51 PM37.2 °C0 °C10 %1004.1 hPa16.1 kmVariable7.4 km/hPartly Cloudy
2:51 PM38.9 °C-0.6 °C8 %1003 hPa16.1 kmWSW (250°)14.8 km/h29.6 km/hPartly Cloudy
3:51 PM39.4 °C0.6 °C9 %1002 hPa16.1 kmVariable11.1 km/h37 km/hPartly Cloudy
4:51 PM38.9 °C0.6 °C9 %1001.4 hPa16.1 kmWSW (250°)11.1 km/h37 km/hPartly Cloudy
5:51 PM38.9 °C1.1 °C9 %1000.7 hPa16.1 kmWest (260°)18.5 km/h40.7 km/hPartly Cloudy
6:51 PM37.8 °C1.1 °C10 %1000.7 hPa16.1 kmSouth (190°)16.7 km/hPartly Cloudy
7:51 PM37.2 °C1.1 °C10 %1001 hPa16.1 kmSouth (170°)16.7 km/hPartly Cloudy
8:51 PM36.1 °C0.6 °C11 %1001.4 hPa16.1 kmSouth (180°)16.7 km/hScattered Clouds
9:38 PM33 °C8 °C21 %1011.2 hPa11.3 kmSE (140°)29.6 km/hScattered Clouds
9:51 PM32.8 °C8.9 °C23 %1003 hPa9.7 kmSSE (150°)35.2 km/h46.3 km/hWidespread Dust
10:51 PM32.2 °C8.9 °C24 %1004.1 hPa6.4 kmSSE (160°)27.8 km/h42.6 km/hWidespread Dust
11:51 PM31.7 °C8.3 °C23 %1004.7 hPa8 kmSouth (180°)27.8 km/h42.6 km/hWidespread Dust
Hourly data recorded from KELP, located 0 kilometers away from El Paso, Texas







STORIES FROM OUR PARTNERS